Date,TemperatureHighF,TemperatureAvgF,TemperatureLowF,DewpointHighF,DewpointAvgF,DewpointLowF,HumidityHigh,HumidityAvg,HumidityLow,PressureMaxIn,PressureMinIn,WindSpeedMaxMPH,WindSpeedAvgMPH,GustSpeedMaxMPH,PrecipitationSumIn
2013-1-1,33.6,24.6,18.8,32.3,19.4,13.7,95,81,68,30.30,30.12,6,1,0,0.01
2013-1-2,30.0,22.0,14.5,19.2,15.2,11.4,88,75,57,30.32,30.23,5,0,0,0.00
2013-1-3,41.5,30.8,20.1,27.0,22.9,16.8,89,73,52,30.43,30.24,11,1,0,0.11
2013-1-4,41.2,32.3,25.4,25.0,23.0,21.2,86,69,48,30.47,30.33,8,1,12,0.02
2013-1-5,44.4,36.1,25.5,32.1,27.1,21.8,88,71,54,30.34,30.13,10,1,0,0.02
2013-1-6,42.3,34.3,24.2,33.0,25.1,19.8,84,69,53,30.42,30.11,18,3,18,0.00
2013-1-7,45.7,32.7,23.5,30.6,25.4,20.0,92,76,54,30.43,30.17,11,1,0,0.00
2013-1-8,54.4,41.4,28.6,37.2,29.9,24.4,86,65,39,30.24,30.11,10,1,0,0.00
2013-1-9,57.9,49.1,40.4,44.1,37.4,32.0,96,66,42,30.48,30.18,8,1,0,0.00
2013-1-10,55.8,47.2,42.1,55.2,42.6,32.2,98,85,59,30.46,29.78,11,2,0,0.73
2013-1-11,63.9,55.7,49.5,55.0,49.5,46.6,97,80,61,29.89,29.77,17,2,17,0.00
2013-1-12,60.3,48.4,32.1,51.7,42.4,29.8,92,81,55,29.95,29.81,14,2,14,1.03
2013-1-13,32.3,25.9,19.4,30.0,21.0,14.5,92,82,71,30.40,29.91,16,3,16,0.00
2013-1-14,28.9,22.2,17.7,17.9,14.7,10.9,85,73,55,30.54,30.40,8,1,0,0.00
2013-1-15,31.2,25.1,18.8,22.2,18.5,15.2,87,76,59,30.46,30.16,9,1,0,0.00
2013-1-16,43.7,31.5,20.7,24.4,20.5,15.9,89,66,39,30.19,30.05,12,1,12,0.00
2013-1-17,42.5,35.5,25.7,30.6,25.1,20.4,85,67,46,30.51,30.15,15,1,15,0.00
2013-1-18,54.5,38.3,23.4,30.1,24.9,19.5,89,61,33,30.52,30.16,17,2,17,0.00
2013-1-19,66.8,51.7,38.5,35.5,32.1,28.1,71,49,30,30.17,29.91,17,3,18,0.00
2013-1-20,48.6,33.6,26.3,32.5,16.4,7.4,73,50,30,30.35,30.13,16,2,16,0.00
2013-1-21,27.2,21.1,15.6,14.1,4.4,-4.5,71,49,28,30.44,30.31,19,4,19,0.00
2013-1-22,18.9,16.5,13.7,12.6,5.7,-2.2,82,63,45,30.53,30.41,6,1,0,0.00
2013-1-23,43.9,28.5,15.3,23.9,17.2,11.2,86,64,43,30.42,30.17,14,1,14,0.00
2013-1-24,29.4,22.9,16.4,16.9,8.8,2.4,69,55,46,30.63,30.27,14,3,14,0.00
2013-1-25,44.1,34.8,26.9,23.3,17.9,9.7,61,50,42,30.29,30.14,13,2,13,0.00
2013-1-26,39.7,32.6,26.3,22.8,17.6,11.7,71,55,36,30.42,30.25,7,1,0,0.00
2013-1-27,52.9,37.2,29.0,51.1,33.2,19.4,97,86,65,30.34,29.97,15,2,15,0.11
2013-1-28,73.3,61.4,52.9,62.6,57.4,51.1,94,87,67,29.99,29.85,15,2,15,0.00
2013-1-29,68.2,62.2,53.4,60.7,58.3,52.3,97,87,73,29.85,29.41,20,3,20,1.73
2013-1-30,53.3,40.1,27.7,52.3,35.5,18.5,97,83,65,29.94,29.35,26,5,26,0.15
2013-1-31,34.2,25.4,11.9,27.3,15.8,1.1,92,67,58,30.42,29.94,22,5,22,0.00
2013-2-1,29.2,19.4,8.9,13.8,5.4,-0.4,71,55,39,30.55,30.27,14,2,14,0.00
2013-2-2,43.9,34.6,28.4,29.9,21.6,12.4,93,59,43,30.28,30.08,19,3,19,0.00
2013-2-3,35.7,31.3,27.7,30.1,22.8,15.5,96,72,47,30.22,30.03,21,2,21,0.00
2013-2-4,59.7,40.1,27.5,36.1,28.7,20.5,82,65,39,30.03,29.79,16,1,16,0.00
2013-2-5,57.8,39.9,26.3,35.2,29.9,23.4,91,70,40,30.16,29.90,17,2,17,0.00
2013-2-6,52.4,40.9,29.2,34.1,31.4,26.4,94,70,48,30.26,30.07,11,1,0,0.00
2013-2-7,53.6,43.8,36.7,47.2,37.9,31.1,94,80,60,30.07,29.86,19,1,19,0.10
2013-2-8,39.5,35.6,30.4,36.5,30.4,25.6,90,81,73,30.39,30.05,14,2,14,0.00
2013-2-9,43.2,35.8,30.1,35.6,28.8,25.5,91,76,60,30.39,30.04,13,2,13,0.15
2013-2-10,56.1,47.6,37.9,53.0,42.0,31.3,96,83,41,30.05,29.61,23,4,23,0.61
2013-2-11,51.1,43.2,32.6,32.9,27.2,25.1,79,54,38,30.16,29.78,24,4,24,0.00
2013-2-12,46.2,38.3,27.0,30.9,28.3,23.9,92,69,51,30.19,29.96,6,0,0,0.00
2013-2-13,55.2,44.6,37.5,33.5,30.4,26.5,76,59,34,29.97,29.81,13,2,13,0.00
2013-2-14,57.2,47.0,38.8,35.6,32.6,29.5,77,58,39,30.07,29.83,14,2,14,0.00
2013-2-15,42.8,36.4,29.8,30.5,20.0,11.7,77,52,33,30.28,30.07,16,2,16,0.00
2013-2-16,37.7,29.0,22.1,16.3,13.1,8.3,71,53,30,30.30,30.19,12,2,12,0.00
2013-2-17,48.7,36.2,23.1,32.4,22.7,14.5,77,60,37,30.22,29.93,14,2,14,0.00
2013-2-18,57.5,46.1,34.6,48.1,39.2,25.1,91,77,65,29.93,29.56,25,5,25,0.10
2013-2-19,35.7,30.3,25.0,25.4,16.3,10.3,72,56,38,30.33,29.92,21,4,21,0.00
2013-2-20,27.5,23.7,19.0,14.3,11.5,8.4,69,59,53,30.45,30.32,11,1,0,0.00
2013-2-21,32.0,26.7,22.8,30.7,21.9,14.5,95,82,70,30.36,29.85,18,2,18,0.00
2013-2-22,36.6,32.5,25.2,33.1,27.5,19.3,95,82,65,30.11,29.83,14,2,14,0.10
2013-2-23,37.9,28.6,19.5,23.3,20.1,16.3,90,72,50,30.09,30.01,9,1,0,0.05
2013-2-24,45.2,34.1,21.0,29.0,25.1,19.0,95,71,48,30.16,30.05,10,1,0,0.07
2013-2-25,47.2,39.2,32.3,33.6,30.5,27.1,90,72,54,30.09,29.61,24,2,24,0.32
2013-2-26,44.7,37.5,34.1,42.0,35.6,31.6,95,93,87,29.69,29.36,19,2,19,0.79
2013-2-27,35.6,33.5,32.0,32.7,30.7,28.0,94,89,85,29.92,29.68,15,4,15,0.07
2013-2-28,35.2,33.2,31.8,30.5,29.2,28.0,91,85,78,30.13,29.91,14,3,14,0.00
2013-3-1,34.8,31.5,29.0,30.4,28.1,24.2,92,87,80,30.22,30.09,14,2,14,0.00
2013-3-2,35.4,29.6,24.9,24.5,20.8,18.0,85,70,51,30.28,30.21,14,2,14,0.01
2013-3-3,39.9,31.6,19.6,26.5,20.5,16.1,87,65,42,30.25,30.06,9,1,0,0.00
2013-3-4,53.4,43.7,34.8,42.8,32.8,26.5,80,66,47,30.07,29.77,16,2,16,0.00
2013-3-5,45.0,36.2,31.7,35.0,29.7,21.5,94,78,56,30.14,29.79,31,5,31,0.12
2013-3-6,39.1,33.8,28.5,27.2,23.8,22.4,81,67,55,30.38,30.14,21,3,21,0.00
2013-3-7,46.9,35.6,25.4,31.4,27.0,22.1,89,72,51,30.45,30.33,9,1,0,0.00
2013-3-8,54.1,42.3,30.1,34.5,30.9,26.7,88,66,43,30.45,30.21,12,2,12,0.00
2013-3-9,68.4,52.6,41.3,43.3,37.5,31.3,88,58,37,30.22,29.81,16,3,16,0.25
2013-3-10,58.4,53.5,46.6,52.8,48.7,41.8,95,85,56,29.81,29.64,16,2,16,1.00
2013-3-11,46.6,36.7,33.6,44.1,31.5,24.7,91,81,64,30.01,29.71,20,4,20,0.00
2013-3-12,52.1,38.4,29.6,27.8,25.0,21.7,82,60,34,30.22,30.00,21,4,21,0.00
2013-3-13,43.1,34.7,28.2,26.0,19.7,16.8,80,55,38,30.44,30.22,19,3,19,0.00
2013-3-14,52.2,38.5,27.3,35.0,27.7,20.7,84,66,46,30.42,30.10,16,2,16,0.00
2013-3-15,71.2,52.5,31.9,50.1,40.2,29.0,92,66,38,30.11,29.66,9,0,0,0.00
2013-3-16,66.2,48.7,39.8,48.5,40.6,36.0,89,75,48,30.06,29.64,14,2,19,0.04
2013-3-17,39.8,36.3,33.8,36.3,32.9,28.9,94,87,79,30.11,29.79,16,2,16,1.39
2013-3-18,51.1,42.1,37.2,38.4,34.7,22.6,96,77,46,30.03,29.70,16,3,16,0.03
2013-3-19,49.0,39.3,30.5,23.2,18.1,12.7,69,44,25,30.23,30.03,14,2,14,0.00
2013-3-20,37.5,33.0,27.2,30.2,18.5,11.9,82,56,38,30.30,30.13,18,3,18,0.00
2013-3-21,38.3,30.3,22.1,20.2,14.6,11.2,65,52,37,30.15,30.01,9,1,0,0.00
2013-3-22,42.8,37.0,32.0,26.6,23.7,19.6,67,59,47,30.07,30.00,10,1,0,0.00
2013-3-23,53.9,45.1,38.1,35.1,28.1,22.0,65,52,38,30.06,29.83,14,2,14,0.00
2013-3-24,45.1,33.8,31.3,35.7,31.6,30.0,95,92,65,29.87,29.56,16,3,16,0.10
2013-3-25,36.9,32.6,29.4,31.7,28.3,25.1,95,84,72,30.22,29.84,16,3,16,0.22
2013-3-26,43.1,35.6,29.0,27.6,25.4,22.6,83,67,48,30.38,30.22,15,2,15,0.33
2013-3-27,49.4,37.2,23.5,28.8,25.8,21.3,94,66,39,30.42,30.31,11,1,0,0.00
2013-3-28,57.9,47.1,37.3,38.7,32.6,25.6,67,57,46,30.38,30.24,15,2,15,0.00
2013-3-29,63.2,52.8,43.7,46.0,42.8,37.8,86,70,50,30.27,30.17,9,1,0,0.00
2013-3-30,54.9,47.8,41.3,47.7,44.1,40.1,96,87,68,30.21,29.92,11,1,0,0.18
2013-3-31,69.1,57.1,47.9,50.9,43.8,34.3,96,67,30,29.93,29.84,16,2,16,0.00
2013-4-1,53.5,44.8,38.6,34.6,24.8,15.7,64,46,27,30.25,29.93,15,2,15,0.00
2013-4-2,50.9,40.5,30.0,23.8,18.8,13.2,67,43,26,30.38,30.25,9,1,0,0.00
2013-4-3,53.4,44.7,34.8,26.0,23.6,20.3,63,44,31,30.41,30.26,12,2,13,0.00
2013-4-4,62.9,49.4,33.4,29.4,24.9,20.1,70,41,23,30.26,30.03,9,1,0,0.00
2013-4-5,69.8,54.3,37.7,38.3,33.1,28.1,75,47,26,30.18,30.04,9,1,0,0.00
2013-4-6,75.9,63.3,51.3,44.9,39.7,36.6,61,43,26,30.04,29.72,22,4,22,0.00
2013-4-7,79.0,67.6,55.3,60.6,50.8,44.8,88,57,34,29.91,29.79,14,2,16,0.09
2013-4-8,79.3,69.9,60.8,60.8,57.4,54.0,81,66,50,29.86,29.71,23,3,23,0.01
2013-4-9,79.8,71.2,64.2,63.7,60.4,57.1,79,69,56,29.87,29.78,22,3,22,0.00
2013-4-10,85.8,72.2,61.3,67.4,64.2,59.8,96,77,52,29.80,29.57,34,2,34,1.48
2013-4-11,61.7,48.1,41.2,60.5,41.8,30.4,96,79,63,29.76,29.63,15,3,15,0.02
2013-4-12,45.9,42.7,37.8,33.1,31.4,28.9,75,64,57,30.03,29.74,18,3,18,0.00
2013-4-13,64.5,50.2,33.9,43.2,35.1,30.5,89,59,35,30.09,29.90,11,2,0,0.00
2013-4-14,80.4,64.2,48.5,56.5,48.0,41.6,78,58,31,29.91,29.60,19,4,19,0.00
2013-4-15,72.3,63.8,54.3,62.5,56.6,50.3,92,78,65,29.89,29.73,12,2,13,0.07
2013-4-16,54.6,48.6,45.7,50.8,46.1,44.1,95,91,84,30.15,29.89,14,2,14,0.78
2013-4-17,86.3,65.5,49.4,69.4,58.1,46.4,97,79,51,30.13,29.68,17,2,17,0.00
2013-4-18,76.4,60.7,42.4,67.5,56.0,33.6,97,85,69,29.77,29.56,21,4,21,2.75
2013-4-19,53.1,43.8,36.7,34.3,28.1,23.9,73,55,35,30.08,29.76,26,4,26,0.00
2013-4-20,59.0,46.1,31.3,32.8,29.1,24.6,91,55,29,30.35,30.08,10,1,0,0.00
2013-4-21,65.0,53.3,42.4,42.8,37.1,32.2,68,55,42,30.43,30.25,13,2,13,0.00
2013-4-22,74.3,60.5,43.5,48.1,41.7,36.6,78,52,31,30.28,29.98,16,1,16,0.00
2013-4-23,62.6,53.0,40.5,56.2,48.1,38.6,95,85,59,30.03,29.85,12,1,12,1.29
2013-4-24,57.2,45.4,38.3,38.8,33.6,25.8,94,67,33,30.27,29.99,18,2,18,0.11
2013-4-25,67.8,52.6,37.1,37.8,33.1,27.1,82,51,28,30.37,30.25,12,1,12,0.00
2013-4-26,59.6,53.4,49.3,49.4,43.7,37.5,84,70,57,30.39,30.25,15,2,15,0.00
2013-4-27,54.5,52.1,49.1,53.7,50.4,46.1,97,94,84,30.30,29.93,7,1,0,0.49
2013-4-28,58.9,54.9,50.4,52.7,51.4,48.4,98,88,76,29.97,29.90,11,1,0,0.01
2013-4-29,80.3,63.3,44.8,61.7,55.1,44.0,98,77,51,29.95,29.78,14,2,14,0.00
2013-4-30,89.5,74.2,59.2,63.3,58.8,50.9,92,62,27,29.93,29.80,15,2,15,0.00
2013-5-1,86.8,73.7,58.0,62.2,57.7,50.9,91,61,36,30.06,29.93,12,1,12,0.00
2013-5-2,74.3,62.5,45.9,62.3,55.3,43.9,93,79,55,30.15,30.04,12,1,12,0.54
2013-5-3,45.9,42.5,41.0,44.1,41.1,39.4,96,95,93,30.09,29.83,10,1,0,2.18
2013-5-4,52.7,45.8,40.3,44.8,41.2,38.7,96,84,66,30.02,29.85,9,1,0,0.00
2013-5-5,62.8,53.7,44.5,58.0,51.2,42.6,97,92,80,30.01,29.88,13,1,13,0.23
2013-5-6,68.8,61.7,53.4,56.7,54.2,50.5,94,78,62,29.97,29.90,12,1,12,0.00
2013-5-7,78.5,67.2,58.1,59.5,56.4,52.4,92,71,43,30.03,29.96,7,0,0,0.00
2013-5-8,84.3,68.1,52.4,60.2,55.0,47.3,97,68,33,30.04,29.95,10,1,0,0.00
2013-5-9,79.7,70.4,64.5,65.7,60.7,57.8,90,72,49,29.98,29.82,16,1,18,0.05
2013-5-10,69.2,63.1,56.3,61.6,57.8,50.2,94,83,69,30.00,29.82,13,1,13,0.13
2013-5-11,72.3,60.8,51.2,54.4,45.6,32.8,93,61,31,30.16,29.97,17,2,17,0.00
2013-5-12,64.2,54.1,42.7,35.9,31.1,25.8,70,44,26,30.23,30.14,14,1,14,0.00
2013-5-13,75.3,59.7,40.0,47.0,39.6,30.3,91,53,26,30.24,30.03,11,1,0,0.00
2013-5-14,94.8,76.9,55.7,58.2,52.5,46.8,81,47,24,30.04,29.78,14,2,14,0.00
2013-5-15,93.3,83.0,71.4,65.4,60.8,51.1,68,48,33,29.93,29.78,14,2,14,0.00
2013-5-16,84.3,74.9,68.5,68.2,63.2,56.7,83,68,43,29.92,29.83,14,1,14,0.00
2013-5-17,81.5,72.4,66.6,67.0,63.3,58.8,87,73,58,29.95,29.89,12,1,12,0.00
2013-5-18,84.8,74.3,64.3,67.2,65.2,62.8,95,75,53,29.99,29.85,11,1,12,0.00
2013-5-19,93.0,81.0,70.3,74.8,69.3,64.0,87,69,51,29.88,29.68,19,2,19,0.00
2013-5-20,82.0,73.7,63.8,71.0,66.7,60.6,95,79,62,29.90,29.66,27,2,27,1.46
2013-5-21,83.0,71.2,63.4,67.7,64.1,62.2,96,80,55,29.79,29.68,15,2,15,0.06
2013-5-22,78.5,70.0,63.8,63.2,58.8,54.7,90,69,47,29.86,29.65,16,2,16,0.00
2013-5-23,65.8,62.8,57.5,60.7,54.9,50.3,91,76,62,30.22,29.86,13,2,13,0.04
2013-5-24,72.8,60.7,49.0,50.8,42.0,33.9,85,54,30,30.41,30.22,10,1,0,0.00
2013-5-25,71.4,63.1,51.1,57.0,50.8,42.8,82,65,46,30.34,30.12,11,1,0,0.05
2013-5-26,87.3,72.5,58.0,67.9,59.9,50.8,79,66,51,30.19,29.98,12,2,12,0.00
2013-5-27,86.0,73.7,65.9,73.3,64.6,59.0,95,74,58,30.00,29.72,18,2,18,0.88
2013-5-28,87.9,76.3,68.0,72.0,66.9,63.3,92,74,51,29.89,29.79,20,2,20,0.04
2013-5-29,88.8,79.8,69.4,69.0,65.3,62.4,84,63,44,29.95,29.80,19,3,19,0.00
2013-5-30,83.7,76.3,64.9,72.6,68.4,62.9,95,77,64,29.90,29.78,24,3,24,0.70
2013-5-31,81.0,71.9,64.5,72.5,67.1,63.0,97,86,70,29.89,29.71,20,3,20,2.25
2013-6-1,80.3,69.4,65.2,68.6,64.0,57.7,97,84,60,29.87,29.71,15,2,15,0.47
2013-6-2,69.0,64.9,61.1,59.5,57.3,53.6,84,76,69,30.02,29.86,11,1,0,0.00
2013-6-3,74.3,65.3,58.8,54.0,51.9,46.4,80,63,46,30.09,29.98,9,1,0,0.00
2013-6-4,79.0,67.5,54.6,59.7,55.4,51.1,89,67,45,30.08,29.98,9,1,0,0.00
2013-6-5,84.7,72.1,61.5,65.0,60.8,56.1,92,70,40,30.00,29.83,8,0,0,0.07
2013-6-6,80.2,72.3,64.8,65.6,60.8,54.3,92,69,48,29.85,29.80,12,1,12,0.00
2013-6-7,77.6,68.9,59.9,60.8,57.8,55.3,90,69,51,29.90,29.84,11,1,0,0.00
2013-6-8,83.5,71.8,57.8,61.8,57.1,51.8,95,63,38,29.97,29.89,10,1,0,0.00
2013-6-9,80.7,69.8,64.8,65.9,61.5,59.1,92,76,57,29.94,29.78,18,1,18,0.06
2013-6-10,82.5,71.9,63.8,65.2,62.9,61.0,94,75,53,29.90,29.76,12,1,12,0.03
2013-6-11,94.8,79.2,62.6,73.9,67.8,60.8,96,71,45,29.96,29.83,11,1,0,0.00
2013-6-12,97.3,87.0,73.8,75.5,72.5,69.7,88,64,46,29.93,29.71,20,2,20,0.00
2013-6-13,87.9,78.3,70.4,72.1,64.2,57.6,84,63,41,29.97,29.72,14,2,14,0.00
2013-6-14,86.7,76.0,62.7,62.5,59.7,56.1,89,59,42,30.08,29.93,11,1,0,0.00
2013-6-15,91.0,78.4,70.6,71.5,66.2,61.8,93,68,49,30.08,29.90,13,2,13,0.17
2013-6-16,87.7,76.3,69.6,73.8,70.5,67.0,94,83,62,30.01,29.89,8,1,0,0.24
2013-6-17,88.0,74.0,64.5,74.8,69.8,62.3,98,88,62,29.94,29.83,22,1,24,2.37
2013-6-18,91.2,76.4,62.9,72.9,64.6,59.6,98,71,35,29.95,29.88,9,1,0,0.01
2013-6-19,88.6,77.6,66.7,67.3,64.6,62.1,91,66,45,30.04,29.95,8,0,0,0.00
2013-6-20,93.3,81.9,67.9,70.9,68.0,63.9,92,65,43,30.10,30.01,13,1,13,0.00
2013-6-21,94.4,84.3,73.8,74.3,71.8,69.8,88,67,51,30.08,29.97,13,2,14,0.00
2013-6-22,92.2,78.2,70.0,76.3,69.7,64.1,90,76,50,30.06,29.97,14,1,14,0.07
2013-6-23,91.5,75.5,68.3,75.0,68.8,64.2,97,81,55,30.05,29.92,18,1,18,1.81
2013-6-24,94.3,80.9,67.6,77.9,71.2,66.3,97,75,47,30.06,29.91,10,2,0,0.00
2013-6-25,95.8,85.7,76.2,75.7,73.3,70.8,85,68,48,29.95,29.76,16,2,16,0.00
2013-6-26,94.0,80.9,74.7,78.4,74.3,70.2,95,82,57,29.84,29.69,22,1,22,0.60
2013-6-27,96.6,84.0,73.5,74.9,70.4,64.7,96,67,38,29.86,29.74,12,1,12,0.00
2013-6-28,90.8,82.4,73.3,72.3,65.8,56.3,93,60,34,29.83,29.68,15,2,15,0.06
2013-6-29,83.8,73.2,65.6,67.8,62.5,59.4,90,71,50,29.72,29.63,17,2,17,0.51
2013-6-30,77.5,70.0,64.9,67.6,63.5,60.1,92,80,66,29.90,29.71,11,1,0,0.15
2013-7-1,81.3,73.2,64.4,63.8,57.3,52.3,82,59,43,29.95,29.88,14,2,14,0.00
2013-7-2,71.2,64.3,61.3,62.4,60.3,57.3,95,87,66,30.03,29.92,13,1,13,1.00
2013-7-3,84.6,72.2,62.0,64.3,61.8,59.2,96,73,46,30.08,29.99,9,1,0,0.02
2013-7-4,87.7,76.4,62.6,65.4,62.0,58.7,93,64,39,30.08,29.98,5,1,0,0.00
2013-7-5,87.2,77.1,67.3,70.6,67.2,63.3,95,73,49,30.06,29.97,11,1,0,0.00
2013-7-6,90.5,78.4,70.4,71.3,66.9,59.6,91,70,42,30.03,29.94,10,1,16,0.00
2013-7-7,94.5,81.4,68.1,73.1,68.7,64.1,88,68,44,30.03,29.96,13,2,13,0.00
2013-7-8,94.9,84.3,74.2,75.9,72.1,68.6,83,68,50,30.07,29.98,11,2,0,0.00
2013-7-9,96.7,87.7,78.4,77.1,73.7,71.4,80,64,48,30.02,29.90,11,1,0,0.00
2013-7-10,88.0,81.4,73.7,77.0,73.1,67.7,90,76,58,29.96,29.86,11,1,0,0.15
2013-7-11,87.0,78.5,69.1,67.7,62.6,58.7,86,60,40,30.04,29.95,10,1,12,0.00
2013-7-12,88.2,77.5,66.9,62.0,59.3,54.1,81,56,33,30.10,30.01,9,1,0,0.00
2013-7-13,87.8,77.8,63.8,64.4,61.3,57.4,87,59,40,30.08,29.99,10,1,0,0.00
2013-7-14,92.3,79.9,69.4,73.4,68.0,63.7,90,69,48,30.12,30.02,10,1,0,0.01
2013-7-15,93.5,82.8,74.8,76.0,73.5,71.6,91,75,53,30.20,30.11,9,1,12,0.00
2013-7-16,95.0,85.7,75.7,75.0,72.8,70.2,90,68,47,30.28,30.19,10,1,0,0.00
2013-7-17,95.8,86.6,77.1,75.4,73.4,71.7,90,66,48,30.30,30.16,7,0,0,0.00
2013-7-18,98.3,87.9,77.2,75.9,73.7,70.7,89,65,43,30.18,29.99,8,1,0,0.00
2013-7-19,97.7,86.9,77.2,75.0,72.8,71.0,82,65,46,30.00,29.84,12,1,12,0.00
2013-7-20,95.4,83.8,74.7,76.6,72.4,68.9,86,70,50,29.90,29.77,13,1,13,0.00
2013-7-21,85.2,78.1,74.0,74.3,71.7,69.6,90,81,65,29.92,29.82,7,1,0,0.00
2013-7-22,93.9,82.0,71.1,75.0,71.8,69.3,96,73,47,29.85,29.74,9,1,0,0.00
2013-7-23,93.8,84.4,76.3,75.7,71.4,65.2,82,66,47,29.88,29.71,9,1,0,0.00
2013-7-24,82.8,75.6,67.8,65.6,57.6,53.1,80,55,38,30.01,29.88,12,1,12,0.00
2013-7-25,85.7,74.6,62.2,60.6,57.8,55.2,86,58,39,30.10,30.01,9,0,0,0.00
2013-7-26,75.3,72.3,69.2,69.8,64.6,58.4,90,77,62,30.05,29.93,9,1,0,0.05
2013-7-27,78.7,71.0,60.9,67.8,57.6,50.8,94,65,41,29.99,29.94,14,1,14,0.00
2013-7-28,82.8,69.7,54.9,59.7,53.4,49.3,90,60,34,30.04,29.97,11,1,0,0.00
2013-7-29,78.0,70.5,59.8,66.0,61.6,57.2,92,75,52,30.14,30.04,8,0,0,0.00
2013-7-30,75.7,71.1,66.2,71.2,67.7,63.0,96,89,76,30.11,29.98,9,1,0,1.05
2013-7-31,84.1,75.0,69.7,73.9,70.1,66.2,97,86,63,30.03,29.96,12,0,12,0.00
2013-8-1,90.1,77.4,66.3,69.0,63.0,54.4,95,66,31,30.06,29.96,8,1,0,0.00
2013-8-2,86.2,75.9,69.9,72.5,68.3,63.1,95,78,57,29.98,29.89,12,1,12,0.23
2013-8-3,88.5,78.0,71.6,72.9,69.5,62.6,97,77,52,30.09,29.90,9,1,0,0.00
2013-8-4,83.3,74.9,65.3,62.9,60.8,56.8,87,63,42,30.16,30.06,7,0,0,0.00
2013-8-5,75.0,71.6,68.3,69.3,65.0,61.4,93,80,67,30.08,29.87,10,1,12,0.00
2013-8-6,90.1,78.6,70.5,73.0,71.1,69.1,97,80,52,29.91,29.82,13,1,13,0.00
2013-8-7,92.2,80.6,73.1,74.8,71.6,65.5,95,76,44,29.89,29.79,11,1,0,0.00
2013-8-8,80.7,77.3,74.6,76.1,73.1,71.6,94,87,79,29.94,29.85,5,0,0,0.09
2013-8-9,84.3,76.6,70.3,72.1,68.9,65.1,97,78,60,30.05,29.92,7,0,0,0.00
2013-8-10,88.1,78.9,69.5,70.5,65.7,60.4,88,66,42,30.11,30.03,10,1,0,0.00
2013-8-11,89.5,77.0,62.0,62.6,59.8,55.7,91,58,35,30.13,30.01,7,0,0,0.00
2013-8-12,81.5,75.9,71.7,75.1,69.4,61.2,95,81,64,30.05,29.88,6,0,0,0.18
2013-8-13,82.5,73.9,66.6,70.3,64.1,53.8,95,73,51,30.11,29.93,13,1,13,0.01
2013-8-14,76.2,67.6,54.9,54.5,52.8,49.5,90,61,40,30.19,30.10,11,1,0,0.00
2013-8-15,77.5,67.6,57.6,55.9,54.0,51.5,87,64,43,30.16,30.06,9,0,0,0.00
2013-8-16,78.7,68.9,57.0,58.5,56.4,53.8,93,66,45,30.14,30.08,14,1,14,0.00
2013-8-17,84.5,72.0,59.1,63.3,59.6,56.2,91,67,44,30.17,30.08,19,0,19,0.00
2013-8-18,87.0,75.4,68.1,65.0,62.9,61.0,82,67,45,30.16,30.05,10,0,0,0.00
2013-8-19,88.8,77.1,64.2,68.2,64.8,62.0,94,68,44,30.11,30.00,10,1,0,0.00
2013-8-20,90.5,79.2,67.1,70.3,66.8,62.3,95,68,42,30.09,30.00,10,1,0,0.00
2013-8-21,93.0,81.4,69.7,70.4,67.6,64.1,92,66,40,30.10,30.00,9,1,0,0.00
2013-8-22,93.1,83.6,72.5,73.5,70.8,68.3,87,67,48,30.08,29.98,11,0,0,0.00
2013-8-23,93.0,83.1,74.7,74.0,71.1,65.7,88,69,43,30.08,30.00,10,1,0,0.00
2013-8-24,93.5,81.6,69.3,71.8,68.0,64.0,92,66,39,30.18,30.07,9,1,0,0.00
2013-8-25,95.0,82.2,68.1,73.6,66.8,53.4,89,63,28,30.24,30.13,10,1,0,0.00
2013-8-26,96.7,84.9,74.9,75.9,72.7,69.1,93,69,43,30.19,30.03,10,1,0,0.00
2013-8-27,96.1,85.2,74.5,74.5,70.5,65.2,89,64,37,30.06,29.95,11,1,0,0.00
2013-8-28,97.3,85.1,70.9,70.6,67.8,64.0,91,59,35,30.01,29.94,10,1,0,0.00
2013-8-29,100.8,87.9,75.1,75.1,71.4,68.0,83,60,36,30.01,29.91,8,1,0,0.00
2013-8-30,101.0,88.1,77.4,76.2,73.0,68.2,82,63,37,29.94,29.80,9,1,0,0.00
2013-8-31,102.5,89.0,79.1,76.6,72.8,65.7,90,62,33,29.82,29.68,13,1,13,0.13
2013-9-1,94.0,84.2,77.1,78.2,73.3,66.2,93,72,48,29.81,29.73,13,1,13,0.00
2013-9-2,86.6,78.7,71.2,72.0,63.3,60.8,80,60,43,29.94,29.81,7,1,13,0.00
2013-9-3,85.7,74.2,60.9,62.8,59.1,56.1,88,61,40,30.06,29.93,8,0,0,0.00
2013-9-4,89.3,75.2,60.8,64.1,60.3,57.4,92,63,36,30.15,30.05,8,0,0,0.00
2013-9-5,90.3,76.7,62.1,66.2,61.8,58.9,92,63,37,30.18,30.10,7,0,0,0.00
2013-9-6,90.2,78.7,66.4,67.2,64.5,59.2,92,64,36,30.16,30.01,8,1,0,0.00
2013-9-7,95.5,81.3,66.3,69.2,65.0,60.1,91,61,32,30.03,29.88,11,1,0,0.00
2013-9-8,84.4,78.3,72.5,76.1,71.1,66.7,95,79,63,30.00,29.88,10,1,0,0.33
2013-9-9,100.5,86.7,73.9,74.8,70.7,67.0,93,63,35,29.95,29.86,12,1,12,0.00
2013-9-10,99.6,87.0,74.4,72.6,68.1,60.9,89,57,29,30.06,29.94,9,1,0,0.00
2013-9-11,98.2,85.9,71.7,70.7,67.7,62.4,91,58,32,30.10,29.98,11,1,0,0.00
2013-9-12,87.7,80.3,70.4,70.1,63.8,50.2,82,59,40,30.06,29.95,10,1,0,0.00
2013-9-13,77.4,68.8,60.6,56.9,51.0,43.3,74,54,38,30.12,30.03,12,1,12,0.00
2013-9-14,77.7,66.1,52.5,49.3,45.4,37.3,81,51,25,30.16,30.02,8,0,0,0.00
2013-9-15,84.6,70.2,55.9,65.6,55.2,47.6,87,61,42,30.09,29.97,10,1,0,0.00
2013-9-16,75.3,66.7,61.6,65.4,58.3,54.6,88,75,56,30.25,30.08,11,1,0,0.00
2013-9-17,74.3,66.3,60.6,65.1,59.4,54.8,85,79,69,30.23,30.06,7,0,0,0.01
2013-9-18,90.0,74.2,66.4,75.9,68.7,62.1,96,84,53,30.06,29.93,11,1,0,0.82
2013-9-19,92.0,80.6,72.6,74.5,71.7,69.1,92,76,51,29.98,29.83,13,2,13,0.00
2013-9-20,79.5,69.9,61.5,73.0,66.6,55.3,96,90,75,29.91,29.84,8,0,0,0.46
2013-9-21,72.9,62.5,53.8,55.4,52.5,48.6,94,72,48,29.96,29.89,11,1,0,0.00
2013-9-22,77.3,63.1,49.5,55.3,51.7,48.4,97,70,40,30.02,29.92,8,0,0,0.00
2013-9-23,78.0,65.3,51.1,55.4,52.1,48.9,94,66,40,30.03,29.91,11,1,0,0.00
2013-9-24,84.2,69.6,57.6,67.1,59.6,51.9,87,72,49,29.95,29.77,10,1,0,0.00
2013-9-25,84.5,73.3,65.5,66.5,64.2,61.9,95,75,51,29.85,29.77,10,0,0,0.00
2013-9-26,86.5,73.3,62.5,67.3,62.1,59.1,95,71,45,29.99,29.84,11,0,0,0.00
2013-9-27,86.0,73.4,60.9,65.6,59.6,56.1,93,65,40,30.09,29.97,10,1,0,0.00
2013-9-28,85.2,74.3,64.8,68.2,61.8,55.2,92,66,49,30.04,29.92,19,2,19,0.20
2013-9-29,76.3,66.6,57.6,68.3,55.7,50.6,94,70,42,30.05,29.95,10,1,0,0.02
2013-9-30,79.6,65.4,51.6,65.3,59.2,49.9,97,82,55,29.98,29.87,11,1,0,0.00
2013-10-1,82.4,71.3,62.9,71.7,66.7,61.6,97,86,67,30.01,29.93,9,1,0,0.00
2013-10-2,86.8,74.2,67.8,72.3,69.0,66.9,97,85,57,30.04,29.94,12,1,12,0.04
2013-10-3,87.2,77.2,69.6,71.8,68.9,66.0,93,77,56,29.96,29.85,21,3,21,0.00
2013-10-4,87.6,77.5,68.8,72.0,69.6,67.2,95,78,57,29.96,29.87,15,2,15,0.00
2013-10-5,78.5,70.9,56.1,71.6,66.3,52.1,95,86,67,29.93,29.82,16,1,16,0.06
2013-10-6,59.6,54.6,49.3,52.9,45.0,39.8,91,71,52,29.91,29.83,19,2,19,0.00
2013-10-7,70.9,57.9,50.8,50.2,47.9,46.3,90,71,44,30.14,29.91,11,1,0,0.00
2013-10-8,76.8,61.3,46.6,55.1,49.1,45.5,97,69,37,30.20,30.11,9,0,0,0.00
2013-10-9,77.0,61.8,46.0,55.4,50.7,44.4,96,70,44,30.19,30.07,8,0,0,0.00
2013-10-10,80.7,66.4,53.4,63.8,57.7,52.0,96,76,49,30.15,29.99,9,0,0,0.00
2013-10-11,81.5,67.2,55.1,63.1,57.8,54.0,97,75,42,30.03,29.89,14,1,14,0.00
2013-10-12,77.5,67.4,60.8,66.0,57.9,44.4,95,73,50,30.19,29.92,8,0,0,0.07
2013-10-13,74.4,62.5,48.2,44.4,40.8,36.5,79,48,27,30.37,30.18,10,0,0,0.00
2013-10-14,68.5,59.9,51.8,55.4,44.3,36.3,76,57,45,30.33,30.05,9,0,0,0.00
2013-10-15,69.0,63.5,57.1,65.2,59.3,50.8,96,87,75,30.05,29.88,11,1,0,0.36
2013-10-16,60.7,53.4,46.7,50.8,44.1,41.9,88,71,55,30.05,29.96,16,1,16,0.00
2013-10-17,64.1,53.5,47.8,48.9,44.4,39.8,93,74,42,30.01,29.91,11,1,0,0.02
2013-10-18,61.9,52.2,42.3,46.4,42.4,36.8,95,71,46,30.06,29.96,10,1,0,0.03
2013-10-19,58.6,47.8,40.8,43.0,39.0,34.6,94,74,42,30.04,29.95,14,1,14,0.19
2013-10-20,71.2,56.0,41.6,46.2,42.6,38.3,89,64,37,29.98,29.86,17,2,17,0.00
2013-10-21,56.4,49.8,36.7,46.5,41.0,33.6,90,73,50,30.07,29.92,9,1,0,0.00
2013-10-22,59.8,44.9,34.6,47.2,38.0,32.7,96,79,51,30.07,29.81,15,2,15,0.00
2013-10-23,50.0,43.7,37.4,36.9,33.5,26.9,87,69,45,30.15,29.99,13,1,13,0.00
2013-10-24,48.7,41.0,30.6,37.0,30.2,24.8,93,68,42,30.43,30.14,17,1,17,0.00
2013-10-25,54.9,40.9,26.4,32.9,28.6,24.7,95,65,36,30.54,30.23,9,1,0,0.00
2013-10-26,65.3,51.5,40.5,45.0,35.3,28.3,69,55,42,30.23,30.01,16,1,16,0.00
2013-10-27,60.8,45.0,31.5,34.9,31.8,28.4,93,64,34,30.15,30.02,7,0,0,0.00
2013-10-28,69.2,51.1,33.9,50.3,40.8,32.4,96,71,42,30.24,30.06,5,0,0,0.00
2013-10-29,57.8,53.4,46.8,57.0,47.9,38.8,97,82,62,30.25,30.06,8,0,0,0.21
2013-10-30,73.5,64.9,56.4,68.0,61.8,55.6,98,90,74,30.06,29.82,13,2,13,0.06
2013-10-31,67.3,61.3,48.7,65.0,59.2,46.3,97,93,85,29.82,29.37,12,2,12,0.96
2013-11-1,62.9,53.1,46.1,48.7,44.9,41.5,96,75,49,29.86,29.64,14,1,14,0.01
2013-11-2,56.7,47.9,38.1,42.8,39.9,35.6,92,75,51,30.20,29.85,13,1,13,0.00
2013-11-3,59.0,46.1,32.7,40.4,35.7,31.6,97,71,40,30.32,30.17,12,1,12,0.00
2013-11-4,59.7,52.6,46.7,47.7,42.5,36.8,75,68,59,30.24,30.12,15,2,15,0.00
2013-11-5,61.8,56.1,51.5,54.5,51.0,47.1,95,83,73,30.27,30.00,12,1,12,0.24
2013-11-6,59.2,49.3,37.8,57.5,46.2,35.1,96,89,79,30.28,29.90,13,2,13,0.37
2013-11-7,55.7,42.1,31.7,40.4,35.2,30.5,96,78,49,30.41,30.28,9,1,0,0.01
2013-11-8,59.4,45.4,29.6,39.2,34.3,28.1,96,68,35,30.39,30.10,11,2,0,0.00
2013-11-9,67.8,54.0,44.3,42.9,39.5,36.8,80,60,37,30.24,30.07,15,2,15,0.00
2013-11-10,56.7,47.3,36.7,38.5,33.2,29.1,88,60,36,30.43,30.23,8,0,0,0.00
2013-11-11,68.3,48.0,34.5,49.6,39.1,31.1,89,73,46,30.50,30.12,16,1,16,0.06
2013-11-12,37.2,30.6,23.4,31.4,20.1,17.0,89,66,46,30.79,30.50,15,1,15,0.00
2013-11-13,47.1,33.5,19.4,21.0,18.9,15.7,91,59,30,30.73,30.34,10,1,0,0.00
2013-11-14,59.9,44.9,29.7,27.6,22.6,16.9,67,44,19,30.34,30.06,13,3,13,0.00
2013-11-15,59.9,50.8,46.9,44.3,34.4,26.4,87,55,38,30.08,29.94,17,2,17,0.00
2013-11-16,65.7,58.2,47.6,61.1,53.7,43.9,94,85,78,29.95,29.63,19,4,19,0.09
2013-11-17,80.5,66.5,50.9,66.2,49.9,22.4,95,62,20,29.97,29.36,27,5,27,0.03
2013-11-18,56.8,47.1,35.3,40.7,34.0,27.7,87,63,34,30.31,29.97,14,1,14,0.00
2013-11-19,48.6,40.1,32.3,31.0,28.9,25.2,89,65,42,30.37,30.23,7,0,0,0.00
2013-11-20,49.5,41.4,35.2,41.7,34.8,28.1,87,77,69,30.24,30.05,10,1,0,0.13
2013-11-21,51.4,49.8,48.1,50.3,47.0,42.0,96,90,76,30.20,30.09,6,0,0,0.28
2013-11-22,51.4,40.2,35.2,50.3,37.0,30.8,96,88,81,30.54,30.19,12,2,12,0.00
2013-11-23,35.1,29.3,19.6,30.7,19.2,10.9,87,66,47,30.76,30.53,15,2,15,0.00
2013-11-24,30.7,23.5,16.2,14.5,10.3,5.0,79,58,34,30.80,30.49,8,0,0,0.00
2013-11-25,37.1,33.0,27.4,24.6,19.4,14.6,65,57,45,30.49,30.19,10,1,0,0.00
2013-11-26,42.6,33.9,24.0,29.6,23.2,11.4,78,65,55,30.28,30.10,18,2,18,0.00
2013-11-27,30.4,24.0,18.6,15.5,10.8,8.4,73,57,43,30.40,30.27,10,2,0,0.00
2013-11-28,47.4,33.6,21.9,25.9,20.0,12.5,75,58,41,30.53,30.28,16,1,16,0.00
2013-11-29,46.6,35.7,25.6,29.7,24.7,19.3,79,65,48,30.62,30.40,8,0,0,0.00
2013-11-30,60.2,43.6,27.6,39.3,33.7,25.3,94,70,45,30.40,30.10,11,1,0,0.00
2013-12-1,59.6,46.0,32.0,42.4,37.2,30.3,96,73,51,30.14,29.90,6,0,0,0.00
2013-12-2,59.4,47.8,40.9,47.3,41.5,35.3,95,79,63,29.90,29.68,5,0,0,0.00
2013-12-3,59.2,51.3,44.3,53.1,48.8,43.0,97,91,77,29.71,29.63,11,1,0,0.00
2013-12-4,68.0,55.5,42.3,56.5,50.4,35.3,98,84,64,29.87,29.52,18,2,18,0.00
2013-12-5,42.2,28.8,22.4,35.2,21.9,15.2,90,75,63,30.33,29.86,11,2,0,0.00
2013-12-6,24.1,20.8,16.4,19.5,12.9,6.2,87,71,59,30.63,30.30,11,2,0,0.00
2013-12-7,24.3,18.7,11.8,12.0,8.5,5.7,76,64,52,30.76,30.49,8,1,0,0.00
2013-12-8,28.3,24.4,20.5,25.5,21.0,11.5,93,87,63,30.50,30.05,11,1,0,0.00
2013-12-9,28.8,25.1,21.9,26.0,17.1,12.9,89,71,62,30.36,30.13,14,2,14,0.00
2013-12-10,37.5,26.2,16.9,19.0,15.9,10.6,78,66,43,30.35,30.27,10,1,0,0.00
2013-12-11,34.4,24.4,13.9,23.4,14.4,0.8,91,67,47,30.70,30.33,11,1,0,0.00
2013-12-12,37.2,23.2,11.4,19.9,11.3,0.9,72,61,44,30.69,30.31,10,0,0,0.00
2013-12-13,34.2,30.1,23.0,32.3,25.1,17.5,95,82,64,30.31,29.97,7,1,0,0.00
2013-12-14,35.0,32.1,27.7,33.4,30.1,24.3,96,93,87,30.17,29.86,15,2,15,0.29
2013-12-15,37.1,29.9,24.5,29.2,24.9,20.1,88,82,70,30.24,30.05,11,2,0,0.00
2013-12-16,44.1,34.1,28.3,33.5,29.3,25.2,93,83,65,30.16,30.01,8,1,0,0.07
2013-12-17,44.1,34.4,27.3,31.4,26.2,20.5,90,73,54,30.31,30.14,12,1,0,0.06
2013-12-18,52.1,38.7,24.1,38.8,27.7,19.3,91,67,41,30.30,29.96,14,2,14,0.00
2013-12-19,61.1,52.1,45.3,50.9,45.3,38.8,84,78,65,29.96,29.79,13,2,13,0.00
2013-12-20,70.3,53.9,38.1,59.3,48.7,35.1,91,83,68,29.86,29.68,10,3,14,0.16
2013-12-21,38.0,34.6,33.3,35.1,32.9,31.5,94,93,88,29.86,29.58,11,1,0,0.98
2013-12-22,35.9,33.2,28.2,33.4,29.9,22.5,95,88,79,30.30,29.66,13,3,13,0.02
2013-12-23,28.2,22.5,13.3,22.8,15.8,6.0,83,75,64,30.63,30.30,14,2,14,0.00
2013-12-24,24.6,16.3,7.1,14.3,5.1,-1.6,75,62,40,30.68,30.39,11,2,0,0.00
2013-12-25,38.0,31.6,22.9,30.4,24.4,14.2,84,75,67,30.41,30.26,11,2,0,0.00
2013-12-26,50.2,37.1,25.1,33.9,27.4,23.6,95,71,38,30.41,30.27,6,1,2,0.00
2013-12-27,55.2,40.2,26.8,35.7,30.0,22.9,92,68,45,30.41,30.26,6,0,8,0.00
2013-12-28,58.6,43.3,30.9,35.3,31.2,27.1,86,64,35,30.27,29.92,7,1,13,0.00
2013-12-29,42.8,30.5,18.1,32.3,23.1,9.0,83,74,64,30.30,29.87,11,2,18,0.00
2013-12-30,29.0,20.5,11.3,13.9,6.3,0.3,70,54,38,30.40,30.25,6,1,8,0.00
2013-12-31,44.1,34.2,24.6,26.7,20.8,13.6,72,58,45,30.44,30.19,10,1,13,0.00
2014-1-1,48.7,36.9,25.1,31.5,27.8,22.9,92,71,50,30.20,30.02,12,1,12,0.00
2014-1-2,25.1,18.8,11.5,22.9,12.9,5.7,91,78,63,30.53,30.07,17,3,17,0.00